Location: Blairvadach
(56.2780°N, 6.9720°W)
Time: 19:34:03
(UTC+00:00)

Envisat - Pass Details

Date: 14 November 2019
Orbit: 764 x 766 km, 98.1° (Epoch: 05 December)

Event Time Altitude Azimuth Distance (km) Brightness Sun altitude
Rises 05:42:31 0° 27° (NNE) 3,246 6.5 -19.1°
Reaches altitude 10° 05:46:21 10° 56° (NE) 2,313 6.2 -18.6°
Maximum altitude 05:48:29 13° 81° (E) 2,137 6.4 -18.3°
Drops below altitude 10° 05:50:37 10° 106° (ESE) 2,306 6.7 -18.0°
Sets 05:54:24 0° 135° (SE) 3,225 7.1 -17.5°
